�N����,����,�~����,�C��,���x,�C��,����,���ϕ���,�ő�u�ԕ���,�ő厞����,���˗�,�I�_���x,�n�����x,�ő啗���N��,DTYPE
"19/02/02","00:10",0.0,0.5,93.1,1013.8,316.3,1.8,2.4,322.4,0.00,-0.4,5.1,"00:06:16",1
"19/02/02","00:20",0.0,0.3,93.6,1014.0,316.5,1.7,2.4,322.9,0.00,-0.6,5.0,"00:10:08",1
"19/02/02","00:30",0.0,0.0,93.7,1014.0,296.8,1.1,1.9,319.4,0.00,-0.9,5.0,"00:20:32",1
"19/02/02","00:40",0.0,-0.3,94.1,1014.0,303.6,1.1,2.0,314.7,0.00,-1.1,4.9,"00:35:20",1
"19/02/02","00:50",0.0,-0.6,94.4,1014.2,294.6,1.0,1.2,323.4,0.00,-1.3,4.8,"00:41:04",1
"19/02/02","01:00",0.0,-0.6,95.2,1013.8,318.4,1.5,2.1,320.4,0.00,-1.2,4.8,"00:53:20",1
"19/02/02","01:10",0.0,-0.5,95.9,1013.8,322.7,1.2,1.8,315.6,0.00,-1.0,4.7,"01:04:24",1
"19/02/02","01:20",0.0,-0.8,95.4,1013.8,295.8,1.0,1.4,336.6,0.00,-1.4,4.5,"01:10:32",1
"19/02/02","01:30",0.0,-0.9,95.9,1013.5,298.3,1.1,1.6,320.9,0.00,-1.4,4.6,"01:24:16",1
"19/02/02","01:40",0.0,-0.9,96.3,1013.8,316.2,1.6,2.0,314.0,0.00,-1.4,4.5,"01:31:36",1
"19/02/02","01:50",0.0,-1.2,96.3,1013.8,305.3,1.6,2.2,321.5,0.00,-1.7,4.4,"01:44:48",1
"19/02/02","02:00",0.0,-1.2,96.9,1013.8,315.3,1.5,2.0,325.1,0.00,-1.6,4.7,"01:53:20",1
"19/02/02","02:10",0.0,-1.1,97.0,1013.8,323.7,1.5,2.1,330.4,0.00,-1.5,4.5,"02:04:40",1
"19/02/02","02:20",0.0,-1.0,97.3,1014.0,314.3,0.7,1.6,325.8,0.00,-1.3,4.3,"02:18:18",1
"19/02/02","02:30",0.0,-1.4,97.0,1014.2,304.0,1.0,1.8,302.0,0.00,-1.8,4.3,"02:24:00",1
"19/02/02","02:40",0.0,-1.6,97.1,1013.8,315.0,1.5,2.2,311.4,0.00,-2.0,4.3,"02:33:28",1
"19/02/02","02:50",0.0,-1.7,98.2,1013.8,297.9,1.3,1.9,304.6,0.00,-1.9,4.3,"02:45:12",1
"19/02/02","03:00",0.0,-1.6,97.0,1013.5,288.8,0.8,1.6,317.9,0.00,-2.0,4.2,"02:50:16",1
"19/02/02","03:10",0.0,-1.7,98.1,1013.8,288.9,1.6,2.0,311.9,0.00,-1.9,4.0,"03:00:52",1
"19/02/02","03:20",0.0,-1.4,97.1,1013.3,302.1,1.3,1.8,311.4,0.00,-1.8,4.2,"03:10:10",1
"19/02/02","03:30",0.0,-1.7,97.6,1014.0,313.3,1.7,2.8,323.5,0.00,-2.0,4.0,"03:26:44",1
"19/02/02","03:40",0.0,-1.9,98.2,1013.5,318.0,2.1,2.7,321.9,0.00,-2.1,3.8,"03:31:22",1
"19/02/02","03:50",0.0,-1.7,97.6,1013.5,297.9,1.7,2.1,305.3,0.00,-2.0,3.8,"03:40:48",1
"19/02/02","04:00",0.0,-1.8,98.4,1013.5,302.6,1.6,2.1,313.9,0.00,-2.0,3.8,"03:51:38",1
"19/02/02","04:10",0.0,-1.4,98.2,1013.8,323.5,1.0,1.8,330.3,0.00,-1.6,3.8,"04:00:56",1
"19/02/02","04:20",0.0,-1.5,97.6,1013.8,304.0,1.6,2.4,309.7,0.00,-1.8,3.8,"04:17:48",1
"19/02/02","04:30",0.0,-1.7,98.7,1014.0,305.0,1.7,2.5,304.3,0.00,-1.8,3.7,"04:23:54",1
"19/02/02","04:40",0.0,-1.4,98.0,1013.5,300.7,1.8,2.5,309.0,0.00,-1.6,3.9,"04:37:58",1
"19/02/02","04:50",0.0,-1.2,98.2,1013.3,317.4,1.8,2.4,324.4,0.00,-1.4,3.9,"04:49:28",1
"19/02/02","05:00",0.0,-1.4,98.0,1014.0,290.5,1.6,2.5,341.6,0.00,-1.6,3.6,"04:56:06",1
"19/02/02","05:10",0.0,-1.4,98.4,1014.0,304.4,2.1,2.9,316.3,0.00,-1.6,3.6,"05:05:24",1
"19/02/02","05:20",0.0,-1.5,97.7,1014.0,323.0,2.5,2.9,346.4,0.00,-1.8,3.7,"05:11:36",1
"19/02/02","05:30",0.0,-1.8,98.7,1014.2,320.7,2.2,2.8,325.2,0.00,-1.9,3.5,"05:21:06",1
"19/02/02","05:40",0.0,-1.7,98.6,1014.2,294.7,2.2,2.6,309.6,0.00,-1.9,3.6,"05:38:08",1
"19/02/02","05:50",0.0,-1.6,98.0,1014.7,299.9,1.7,2.4,270.7,0.00,-1.8,3.7,"05:40:24",1
"19/02/02","06:00",0.0,-2.0,97.9,1014.7,306.9,2.6,3.6,324.3,0.00,-2.2,3.4,"05:59:46",1
"19/02/02","06:10",0.0,-2.3,99.3,1014.5,320.6,3.1,3.6,324.9,0.00,-2.4,3.5,"06:00:54",1
"19/02/02","06:20",0.0,-2.2,98.6,1014.5,296.1,2.2,2.6,313.4,0.00,-2.4,3.6,"06:10:02",1
"19/02/02","06:30",0.0,-2.2,98.4,1014.7,310.3,2.6,2.8,307.1,0.00,-2.4,3.2,"06:20:28",1
"19/02/02","06:40",0.0,-2.3,98.6,1014.9,307.0,2.7,3.7,321.9,0.00,-2.5,3.4,"06:34:58",1
"19/02/02","06:50",0.0,-2.2,98.6,1014.9,295.7,2.1,2.8,314.3,0.00,-2.4,3.3,"06:46:14",1
"19/02/02","07:00",0.0,-2.4,98.4,1015.2,309.5,3.0,3.2,312.0,0.00,-2.6,3.1,"06:56:52",1
"19/02/02","07:10",0.0,-2.5,98.5,1015.4,307.1,2.5,2.7,318.3,0.00,-2.7,3.3,"07:05:20",1
"19/02/02","07:20",0.0,-2.4,98.9,1015.6,301.2,2.2,2.6,313.8,0.00,-2.5,3.3,"07:13:56",1
"19/02/02","07:30",0.0,-2.4,98.6,1015.9,303.3,2.2,2.5,310.8,0.00,-2.5,3.2,"07:22:50",1
"19/02/02","07:40",0.0,-2.2,98.9,1015.9,285.0,1.5,1.8,301.6,0.00,-2.3,3.3,"07:35:26",1
"19/02/02","07:50",0.0,-1.6,99.2,1016.1,294.8,0.6,1.4,283.4,0.00,-1.7,3.3,"07:40:24",1
"19/02/02","08:00",0.0,-1.6,98.9,1016.4,311.9,1.8,3.4,320.4,0.01,-1.7,3.2,"07:55:44",1
"19/02/02","08:10",0.0,-1.2,98.9,1016.4,309.3,1.6,2.5,314.9,0.02,-1.3,3.4,"08:04:56",1
"19/02/02","08:20",0.0,-0.5,99.2,1016.6,302.1,1.5,2.4,316.8,0.03,-0.6,3.3,"08:14:56",1
"19/02/02","08:30",0.0,0.4,98.4,1016.8,283.5,1.0,1.3,299.3,0.05,0.2,3.1,"08:27:48",1
"19/02/02","08:40",0.0,0.9,98.3,1016.8,261.9,1.0,1.4,261.4,0.04,0.7,3.3,"08:34:06",1
"19/02/02","08:50",0.0,1.4,97.9,1017.3,268.4,0.6,0.9,263.7,0.05,1.1,3.5,"08:40:22",1
"19/02/02","09:00",0.2,1.9,97.5,1017.8,257.0,0.6,0.9,290.9,0.07,1.6,3.7,"08:53:28",1
"19/02/02","09:10",0.0,2.4,96.7,1017.8,252.7,0.5,1.1,312.1,0.10,2.0,3.4,"09:07:34",1
"19/02/02","09:20",0.0,2.9,94.9,1018.0,241.0,0.6,0.9,203.9,0.14,2.2,3.5,"09:11:20",1
"19/02/02","09:30",0.0,3.3,92.0,1018.5,259.6,0.7,0.8,257.9,0.17,2.2,3.7,"09:28:42",1
"19/02/02","09:40",0.0,4.2,89.5,1018.7,278.1,1.0,1.1,292.3,0.20,2.7,3.9,"09:34:16",1
"19/02/02","09:50",0.0,4.5,85.5,1019.2,231.4,1.0,1.1,204.0,0.23,2.3,3.9,"09:46:22",1
"19/02/02","10:00",0.0,5.4,81.1,1019.4,212.0,0.8,0.8,212.0,0.25,2.5,4.1,"09:53:50",1
"19/02/02","10:10",0.0,5.5,77.4,1019.7,231.8,1.8,3.5,222.6,0.27,1.9,4.3,"10:00:34",1
"19/02/02","10:20",0.0,5.9,74.4,1019.7,233.3,1.8,3.6,236.5,0.29,1.7,4.5,"10:19:38",1
"19/02/02","10:30",0.0,6.4,74.5,1019.9,231.2,1.8,3.4,239.5,0.31,2.2,4.6,"10:22:10",1
"19/02/02","10:40",0.0,6.8,69.5,1020.1,261.4,2.2,3.9,218.6,0.33,1.7,4.9,"10:33:40",1
"19/02/02","10:50",0.0,7.1,71.0,1020.4,261.3,1.2,4.0,234.6,0.35,2.2,5.2,"10:43:28",1
"19/02/02","11:00",0.0,7.4,67.3,1020.4,286.4,2.3,5.2,283.6,0.37,1.8,5.4,"10:54:00",1
"19/02/02","11:10",0.0,7.7,65.8,1020.1,281.6,1.8,3.4,343.3,0.38,1.8,5.7,"11:08:00",1
"19/02/02","11:20",0.0,8.1,63.7,1019.7,266.4,1.8,2.9,257.8,0.40,1.7,6.0,"11:12:16",1
"19/02/02","11:30",0.0,8.5,63.3,1019.7,249.6,1.3,3.2,237.2,0.41,2.0,6.2,"11:22:40",1
"19/02/02","11:40",0.0,8.7,63.7,1019.4,255.4,2.2,5.2,209.2,0.42,2.3,6.6,"11:33:52",1
"19/02/02","11:50",0.0,9.0,60.4,1018.7,288.6,2.1,3.2,277.1,0.43,1.8,6.6,"11:49:28",1
"19/02/02","12:00",0.0,8.8,60.6,1018.7,254.0,2.7,5.9,235.6,0.44,1.6,7.0,"11:56:16",1
"19/02/02","12:10",0.0,9.3,58.4,1018.7,235.4,3.0,6.0,219.6,0.45,1.6,7.0,"12:04:16",1
"19/02/02","12:20",0.0,9.7,58.5,1017.8,242.6,2.6,4.7,217.3,0.45,2.0,7.4,"12:12:16",1
"19/02/02","12:30",0.0,9.8,56.4,1018.0,310.9,2.6,4.5,316.9,0.45,1.6,7.6,"12:20:24",1
"19/02/02","12:40",0.0,10.5,56.4,1018.2,291.8,1.7,3.5,295.3,0.45,2.2,7.8,"12:36:16",1
"19/02/02","12:50",0.0,10.5,55.1,1017.8,299.1,2.3,4.4,345.9,0.45,1.9,8.2,"12:47:52",1
"19/02/02","13:00",0.0,10.5,54.6,1017.5,248.6,1.8,3.9,329.6,0.45,1.8,8.2,"12:50:24",1
"19/02/02","13:10",0.0,10.6,54.9,1017.3,270.7,2.1,4.7,231.4,0.45,2.0,8.4,"13:01:20",1
"19/02/02","13:20",0.0,11.0,53.5,1017.1,288.2,2.3,4.5,315.5,0.44,2.0,8.8,"13:19:28",1
"19/02/02","13:30",0.0,11.3,54.8,1016.8,262.6,1.8,3.9,344.4,0.41,2.6,8.8,"13:21:28",1
"19/02/02","13:40",0.0,11.3,53.6,1016.8,257.6,2.0,3.6,227.0,0.43,2.3,9.0,"13:30:32",1
"19/02/02","13:50",0.0,11.6,52.0,1016.6,270.3,2.8,7.9,208.6,0.43,2.1,9.0,"13:41:28",1
"19/02/02","14:00",0.0,11.2,52.4,1016.4,242.7,2.7,5.7,230.8,0.41,1.9,9.3,"13:58:32",1
"19/02/02","14:10",0.0,11.4,51.1,1016.4,260.6,2.1,5.7,213.3,0.41,1.7,9.5,"14:00:08",1
"19/02/02","14:20",0.0,11.9,51.1,1016.1,264.1,2.7,7.1,224.9,0.41,2.2,9.6,"14:18:24",1
"19/02/02","14:30",0.0,12.1,51.1,1016.1,275.9,3.1,6.0,236.3,0.38,2.3,9.7,"14:28:16",1
"19/02/02","14:40",0.0,11.6,50.8,1016.1,248.1,2.5,5.1,233.3,0.29,1.8,9.7,"14:35:28",1
"19/02/02","14:50",0.0,11.7,50.3,1016.1,258.8,2.2,5.0,232.8,0.23,1.8,9.8,"14:44:48",1
"19/02/02","15:00",0.0,12.0,48.9,1016.6,296.4,2.6,4.7,306.2,0.31,1.6,9.9,"14:51:04",1
"19/02/02","15:10",0.0,12.2,49.2,1016.6,272.8,2.1,4.0,277.1,0.31,1.9,10.0,"15:07:12",1
"19/02/02","15:20",0.0,12.1,50.0,1016.4,303.2,2.8,4.9,324.3,0.28,2.0,10.0,"15:19:04",1
"19/02/02","15:30",0.0,12.2,49.2,1016.4,285.7,2.3,3.9,329.2,0.25,1.9,10.2,"15:25:04",1
"19/02/02","15:40",0.0,12.1,50.7,1016.4,267.6,2.1,3.7,243.8,0.22,2.2,10.1,"15:34:00",1
"19/02/02","15:50",0.0,11.9,49.5,1016.4,278.8,2.3,4.3,329.4,0.20,1.7,10.1,"15:44:16",1
"19/02/02","16:00",0.0,12.1,50.5,1016.6,308.0,2.0,4.0,339.7,0.17,2.2,9.8,"15:54:00",1
"19/02/02","16:10",0.0,11.9,51.4,1016.6,313.3,3.0,5.7,331.5,0.12,2.2,9.9,"16:02:08",1
"19/02/02","16:20",0.0,11.7,51.0,1016.8,326.5,2.8,5.2,333.2,0.14,1.9,9.9,"16:11:04",1
"19/02/02","16:30",0.0,11.6,52.7,1017.3,341.4,2.5,5.2,338.7,0.09,2.3,9.8,"16:27:36",1
"19/02/02","16:40",0.0,11.3,52.9,1016.6,330.8,2.5,4.7,337.4,0.04,2.1,9.7,"16:33:36",1
"19/02/02","16:50",0.0,11.3,52.9,1016.8,342.8,1.6,2.9,328.5,0.06,2.1,9.9,"16:40:08",1
"19/02/02","17:00",0.0,11.3,53.6,1016.8,328.5,1.6,2.8,330.6,0.04,2.3,9.8,"16:50:24",1
"19/02/02","17:10",0.0,10.5,56.9,1016.8,268.0,2.3,5.0,239.1,0.01,2.4,9.6,"17:07:04",1
"19/02/02","17:20",0.0,10.0,59.3,1016.6,265.8,2.2,3.7,311.6,0.01,2.5,9.5,"17:10:02",1
"19/02/02","17:30",0.0,9.8,59.7,1016.8,284.3,2.1,3.1,304.9,0.00,2.4,9.5,"17:21:36",1
"19/02/02","17:40",0.0,9.6,60.5,1016.6,304.6,2.5,3.7,315.8,0.00,2.4,9.2,"17:38:08",1
"19/02/02","17:50",0.0,9.2,62.1,1016.8,288.4,2.2,3.5,307.4,0.00,2.4,9.3,"17:46:08",1
"19/02/02","18:00",0.0,9.0,63.1,1016.8,302.1,2.3,3.4,324.5,0.00,2.4,8.9,"17:58:40",1
"19/02/02","18:10",0.0,8.5,64.5,1017.1,315.4,2.6,4.2,335.0,0.00,2.2,8.9,"18:00:08",1
"19/02/02","18:20",0.0,8.2,66.7,1016.8,325.4,2.7,4.1,330.2,0.00,2.4,8.9,"18:13:44",1
"19/02/02","18:30",0.0,7.5,69.0,1017.1,326.3,3.0,4.9,332.4,0.00,2.2,8.7,"18:24:16",1
"19/02/02","18:40",0.0,7.1,71.1,1017.3,328.0,2.6,4.2,320.6,0.00,2.3,8.6,"18:32:48",1
"19/02/02","18:50",0.0,6.7,72.1,1017.5,320.3,2.0,2.8,311.0,0.00,2.1,8.6,"18:41:04",1
"19/02/02","19:00",0.0,6.1,73.4,1017.5,304.7,1.7,2.8,309.0,0.00,1.7,8.4,"18:50:16",1
"19/02/02","19:10",0.0,5.9,75.1,1017.5,293.0,1.7,2.6,325.2,0.00,1.9,8.2,"19:08:24",1
"19/02/02","19:20",0.0,5.8,76.7,1017.5,301.7,2.7,4.7,315.2,0.00,2.1,8.1,"19:16:00",1
"19/02/02","19:30",0.0,5.9,77.5,1017.1,323.9,3.9,5.0,334.1,0.00,2.3,7.9,"19:24:56",1
"19/02/02","19:40",0.0,5.5,78.6,1017.3,323.9,3.0,5.2,335.6,0.00,2.1,7.9,"19:31:12",1
"19/02/02","19:50",0.0,5.0,80.1,1017.3,321.3,1.5,4.0,310.7,0.00,1.9,7.6,"19:49:52",1
"19/02/02","20:00",0.0,4.9,81.9,1017.1,310.8,4.0,5.5,322.5,0.00,2.1,7.5,"19:51:36",1
"19/02/02","20:10",0.0,5.0,82.6,1016.8,310.8,3.6,5.4,330.1,0.00,2.3,7.6,"20:03:52",1
"19/02/02","20:20",0.0,4.6,83.0,1017.1,266.4,1.6,2.6,257.1,0.00,2.0,7.4,"20:10:02",1
"19/02/02","20:30",0.0,4.5,84.1,1017.5,300.8,3.4,5.7,333.3,0.00,2.1,7.3,"20:29:36",1
"19/02/02","20:40",0.0,4.4,84.6,1017.5,326.8,4.2,7.0,336.4,0.00,2.1,7.2,"20:32:32",1
"19/02/02","20:50",0.0,4.3,84.8,1018.0,315.9,4.2,5.2,335.6,0.00,2.0,7.2,"20:46:56",1
"19/02/02","21:00",0.0,4.1,85.5,1018.2,327.4,3.9,5.6,328.3,0.00,1.9,6.9,"20:55:12",1
"19/02/02","21:10",0.0,4.0,85.9,1018.0,309.1,3.1,5.1,338.7,0.00,1.9,7.0,"21:00:08",1
"19/02/02","21:20",0.0,3.7,85.8,1017.8,291.3,1.8,3.3,317.7,0.00,1.6,6.7,"21:10:08",1
"19/02/02","21:30",0.0,3.4,86.8,1018.0,296.1,1.5,3.2,318.9,0.00,1.5,6.7,"21:21:36",1
"19/02/02","21:40",0.0,2.9,86.5,1018.2,323.3,2.1,3.1,323.5,0.00,0.9,6.9,"21:37:44",1
"19/02/02","21:50",0.0,2.5,88.4,1017.8,317.4,2.3,3.1,321.6,0.00,0.8,6.6,"21:40:48",1
"19/02/02","22:00",0.0,2.5,89.3,1017.8,295.5,1.8,2.6,316.7,0.00,1.0,6.6,"21:55:44",1
"19/02/02","22:10",0.0,2.5,89.8,1018.0,295.5,1.8,2.5,310.3,0.00,1.0,6.6,"22:09:44",1
"19/02/02","22:20",0.0,2.2,89.9,1018.0,308.7,2.1,2.9,313.7,0.00,0.8,6.5,"22:16:48",1
"19/02/02","22:30",0.0,1.9,91.1,1018.0,300.3,2.0,2.7,319.3,0.00,0.6,6.4,"22:23:04",1
"19/02/02","22:40",0.0,2.0,91.7,1018.0,288.9,1.8,2.4,298.2,0.00,0.8,6.2,"22:32:56",1
"19/02/02","22:50",0.0,1.9,91.8,1017.5,297.2,2.0,3.1,313.4,0.00,0.7,6.2,"22:47:04",1
"19/02/02","23:00",0.0,1.8,91.8,1017.3,302.8,2.1,3.1,319.3,0.00,0.7,6.1,"22:58:24",1
"19/02/02","23:10",0.0,1.6,92.3,1017.1,290.4,1.7,2.6,317.1,0.00,0.5,6.1,"23:00:56",1
"19/02/02","23:20",0.0,1.7,93.3,1016.8,297.8,2.1,2.8,309.3,0.00,0.8,6.1,"23:18:48",1
"19/02/02","23:30",0.0,1.6,93.2,1017.1,298.0,1.2,2.9,314.2,0.00,0.7,5.7,"23:20:16",1
"19/02/02","23:40",0.0,1.3,93.3,1017.1,299.9,0.8,1.7,297.1,0.00,0.4,5.7,"23:37:28",1
"19/02/02","23:50",0.0,0.7,93.3,1017.1,317.8,2.1,2.6,324.0,0.00,-0.2,5.7,"23:46:00",1
"19/02/02","24:00",0.0,0.6,94.4,1016.6,327.5,2.1,2.5,324.0,0.00,-0.2,5.6,"23:50:16",1
